Location: Argonnex
(45.9500°N, 6.1333°E)
Time: 10:08:45
(UTC+00:00)

Cosmos 2266 Rocket - Pass Details

Date: 05 October 2023
Orbit: 933 x 1008 km, 82.9° (Epoch: 10 December)

Event Time Altitude Azimuth Distance (km) Brightness Sun altitude
Exits shadow 04:18:19 12° 299° (WNW) 2,616 5.8 -14.7°
Maximum altitude 04:18:37 12° 302° (WNW) 2,614 5.8 -14.7°
Drops below altitude 10° 04:21:07 10° 326° (NW) 2,792 6.1 -14.2°
Sets 04:25:38 0° 355° (N) 3,751 7.1 -13.5°
